| time (UTC) | temp F | wind direction | speed MPH | gust MPH | rain 1hr in | rain 24hr in | rain mn in | humidity % | barometer mb |
| 20260901192724 | 99 | 133 | 0.0 | 0.0 | 0.00 | 0.00 | 0.00 | 40 | 1011.2 |
| 20260901192220 | 100 | 168 | 1.0 | 2.0 | 0.00 | 0.00 | 0.00 | 41 | 1011.2 |
| 20260901191715 | 100 | 111 | 2.0 | 2.0 | 0.00 | 0.00 | 0.00 | 40 | 1011.3 |
| 20260901191211 | 99 | 128 | 0.0 | 0.0 | 0.00 | 0.00 | 0.00 | 42 | 1011.3 |
| 20260901190707 | 99 | 170 | 2.0 | 2.0 | 0.00 | 0.00 | 0.00 | 41 | 1011.5 |
| 20260901190206 | 100 | 208 | 3.0 | 3.0 | 0.00 | 0.00 | 0.00 | 40 | 1011.4 |
| 20260901185705 | 100 | 169 | 3.0 | 5.0 | 0.00 | 0.00 | 0.00 | 40 | 1011.3 |
| 20260901185203 | 100 | 127 | 0.0 | 0.0 | 0.00 | 0.00 | 0.00 | 39 | 1011.8 |
| 20260901184659 | 100 | 161 | 3.0 | 5.0 | 0.00 | 0.00 | 0.00 | 40 | 1011.7 |
| 20260901184154 | 99 | 180 | 1.0 | 2.0 | 0.00 | 0.00 | 0.00 | 40 | 1011.8 |
| 20260901183644 | 98 | 175 | 2.0 | 2.0 | 0.00 | 0.00 | 0.00 | 43 | 1011.8 |
| 20260901183144 | 98 | 136 | 2.0 | 2.0 | 0.00 | 0.00 | 0.00 | 41 | 1012.1 |
| 20260901182640 | 98 | 125 | 1.0 | 2.0 | 0.00 | 0.00 | 0.00 | 42 | 1012.2 |
| 20260901182138 | 97 | 316 | 3.0 | 3.0 | 0.00 | 0.00 | 0.00 | 44 | 1012.2 |
| 20260901181633 | 95 | 175 | 3.0 | 3.0 | 0.00 | 0.00 | 0.00 | 47 | 1012.2 |
| 20260901181128 | 96 | 163 | 1.0 | 1.0 | 0.00 | 0.00 | 0.00 | 46 | 1012.3 |
| 20260901180622 | 96 | 324 | 2.0 | 2.0 | 0.00 | 0.00 | 0.00 | 45 | 1012.1 |
| 20260901180116 | 95 | 150 | 1.0 | 2.0 | 0.00 | 0.00 | 0.00 | 46 | 1012.4 |
| 20260901175615 | 95 | 176 | 3.0 | 3.0 | 0.00 | 0.00 | 0.00 | 46 | 1012.3 |
| 20260901175110 | 94 | 326 | 2.0 | 3.0 | 0.00 | 0.00 | 0.00 | 49 | 1012.8 |
| 20260901174606 | 93 | 158 | 2.0 | 3.0 | 0.00 | 0.00 | 0.00 | 48 | 1012.6 |
| 20260901174101 | 93 | 158 | 1.0 | 2.0 | 0.00 | 0.00 | 0.00 | 49 | 1012.8 |
| 20260901173555 | 94 | 122 | 0.0 | 1.0 | 0.00 | 0.00 | 0.00 | 48 | 1012.8 |
| 20260901173051 | 94 | 163 | 3.0 | 3.0 | 0.00 | 0.00 | 0.00 | 49 | 1012.8 |
| 20260901172547 | 93 | 30 | 2.0 | 3.0 | 0.00 | 0.00 | 0.00 | 49 | 1013.0 |
| 20260901172044 | 93 | 133 | 1.0 | 1.0 | 0.00 | 0.00 | 0.00 | 49 | 1012.9 |
| 20260901171538 | 94 | 149 | 2.0 | 3.0 | 0.00 | 0.00 | 0.00 | 48 | 1013.1 |
| 20260901171037 | 93 | 144 | 3.0 | 3.0 | 0.00 | 0.00 | 0.00 | 49 | 1013.1 |
| 20260901170532 | 93 | 210 | 3.0 | 3.0 | 0.00 | 0.00 | 0.00 | 50 | 1012.8 |
| 20260901170026 | 93 | 201 | 5.0 | 6.0 | 0.00 | 0.00 | 0.00 | 49 | 1013.0 |
| 20260901165521 | 93 | 309 | 3.0 | 5.0 | 0.00 | 0.00 | 0.00 | 50 | 1013.0 |
| 20260901165016 | 93 | 192 | 5.0 | 8.0 | 0.00 | 0.00 | 0.00 | 49 | 1013.0 |
| 20260901164512 | 93 | 135 | 1.0 | 2.0 | 0.00 | 0.00 | 0.00 | 50 | 1013.3 |
| 20260901164007 | 93 | 217 | 4.0 | 6.0 | 0.00 | 0.00 | 0.00 | 50 | 1013.1 |
| 20260901163502 | 92 | 246 | 3.0 | 3.0 | 0.00 | 0.00 | 0.00 | 52 | 1013.1 |
| 20260901163001 | 93 | 191 | 4.0 | 5.0 | 0.00 | 0.00 | 0.00 | 51 | 1013.1 |
| 20260901162457 | 92 | 201 | 4.0 | 5.0 | 0.00 | 0.00 | 0.00 | 52 | 1013.3 |
| 20260901161955 | 92 | 100 | 2.0 | 2.0 | 0.00 | 0.00 | 0.00 | 53 | 1013.4 |
| 20260901161455 | 91 | 131 | 1.0 | 2.0 | 0.00 | 0.00 | 0.00 | 54 | 1013.3 |
| 20260901160950 | 91 | 127 | 1.0 | 2.0 | 0.00 | 0.00 | 0.00 | 55 | 1013.5 |
| 20260901160446 | 91 | 189 | 2.0 | 3.0 | 0.00 | 0.00 | 0.00 | 55 | 1013.4 |
| 20260901155944 | 91 | 135 | 1.0 | 1.0 | 0.00 | 0.00 | 0.00 | 55 | 1013.2 |
| 20260901155444 | 90 | 175 | 3.0 | 3.0 | 0.00 | 0.00 | 0.00 | 58 | 1013.3 |
| 20260901154941 | 90 | 143 | 0.0 | 1.0 | 0.00 | 0.00 | 0.00 | 59 | 1013.2 |
| 20260901154440 | 90 | 223 | 3.0 | 5.0 | 0.00 | 0.00 | 0.00 | 60 | 1013.2 |
| 20260901153935 | 89 | 123 | 1.0 | 1.0 | 0.00 | 0.00 | 0.00 | 61 | 1013.3 |
| 20260901153430 | 89 | 177 | 4.0 | 5.0 | 0.00 | 0.00 | 0.00 | 61 | 1013.4 |
| 20260901152930 | 88 | 164 | 3.0 | 5.0 | 0.00 | 0.00 | 0.00 | 62 | 1013.2 |
| 20260901152429 | 87 | 180 | 3.0 | 5.0 | 0.00 | 0.00 | 0.00 | 63 | 1013.2 |
| 20260901151929 | 87 | 147 | 1.0 | 2.0 | 0.00 | 0.00 | 0.00 | 64 | 1013.2 |
| 20260901151424 | 87 | 181 | 5.0 | 7.0 | 0.00 | 0.00 | 0.00 | 63 | 1013.5 |
| 20260901150923 | 87 | 148 | 3.0 | 6.0 | 0.00 | 0.00 | 0.00 | 63 | 1013.6 |
| 20260901150421 | 86 | 160 | 1.0 | 2.0 | 0.00 | 0.00 | 0.00 | 64 | 1013.4 |
| 20260901145918 | 86 | 183 | 5.0 | 6.0 | 0.00 | 0.00 | 0.00 | 64 | 1013.6 |
| 20260901145413 | 86 | 315 | 3.0 | 5.0 | 0.00 | 0.00 | 0.00 | 66 | 1013.4 |
| 20260901144908 | 86 | 201 | 2.0 | 2.0 | 0.00 | 0.00 | 0.00 | 66 | 1013.4 |
| 20260901144404 | 86 | 161 | 3.0 | 3.0 | 0.00 | 0.00 | 0.00 | 66 | 1013.4 |
| 20260901143859 | 85 | 162 | 3.0 | 3.0 | 0.00 | 0.00 | 0.00 | 67 | 1013.5 |
| 20260901143355 | 85 | 167 | 4.0 | 6.0 | 0.00 | 0.00 | 0.00 | 68 | 1013.4 |
| 20260901142852 | 84 | 137 | 2.0 | 2.0 | 0.00 | 0.00 | 0.00 | 69 | 1013.6 |
| 20260901142350 | 84 | 145 | 3.0 | 6.0 | 0.00 | 0.00 | 0.00 | 70 | 1013.5 |
| 20260901141846 | 84 | 169 | 1.0 | 2.0 | 0.00 | 0.00 | 0.00 | 71 | 1013.6 |
| 20260901141341 | 84 | 156 | 2.0 | 2.0 | 0.00 | 0.00 | 0.00 | 73 | 1013.5 |
| 20260901140839 | 83 | 143 | 0.0 | 1.0 | 0.00 | 0.00 | 0.00 | 73 | 1013.6 |
| 20260901140338 | 83 | 158 | 1.0 | 1.0 | 0.00 | 0.00 | 0.00 | 73 | 1013.3 |
| 20260901135833 | 82 | 124 | 1.0 | 1.0 | 0.00 | 0.00 | 0.00 | 74 | 1013.5 |
| 20260901135328 | 82 | 126 | 0.0 | 0.0 | 0.00 | 0.00 | 0.00 | 75 | 1013.5 |
| 20260901134824 | 82 | 161 | 1.0 | 1.0 | 0.00 | 0.00 | 0.00 | 74 | 1013.8 |
| 20260901134319 | 83 | 143 | 0.0 | 1.0 | 0.00 | 0.00 | 0.00 | 73 | 1013.6 |
| 20260901133813 | 82 | 123 | 0.0 | 0.0 | 0.00 | 0.00 | 0.00 | 75 | 1013.6 |
| 20260901133312 | 81 | 108 | 1.0 | 1.0 | 0.00 | 0.00 | 0.00 | 75 | 1013.6 |
| 20260901132811 | 81 | 102 | 1.0 | 1.0 | 0.00 | 0.00 | 0.00 | 76 | 1013.6 |
| 20260901132307 | 81 | 137 | 0.0 | 1.0 | 0.00 | 0.00 | 0.00 | 76 | 1013.6 |
| 20260901131805 | 80 | 121 | 0.0 | 0.0 | 0.00 | 0.00 | 0.00 | 80 | 1013.5 |
| 20260901131300 | 78 | 137 | 0.0 | 1.0 | 0.00 | 0.00 | 0.00 | 81 | 1013.5 |
| 20260901130755 | 77 | 112 | 0.0 | 1.0 | 0.00 | 0.00 | 0.00 | 84 | 1013.5 |
| 20260901130255 | 75 | 114 | 0.0 | 1.0 | 0.00 | 0.00 | 0.00 | 86 | 1013.6 |
| 20260901125753 | 74 | 122 | 0.0 | 0.0 | 0.00 | 0.00 | 0.00 | 90 | 1013.5 |
| 20260901125247 | 72 | 120 | 0.0 | 0.0 | 0.00 | 0.00 | 0.00 | 93 | 1013.6 |
| 20260901124742 | 70 | 114 | 0.0 | 0.0 | 0.00 | 0.00 | 0.00 | 99 | 1013.3 |
| 20260901124237 | 70 | 108 | 0.0 | 1.0 | 0.00 | 0.00 | 0.00 | 99 | 1013.3 |
| 20260901123737 | 68 | 120 | 0.0 | 0.0 | 0.00 | 0.00 | 0.00 | 99 | 1013.2 |
| 20260901123232 | 68 | 119 | 0.0 | 0.0 | 0.00 | 0.00 | 0.00 | 99 | 1013.2 |
| 20260901122731 | 67 | 117 | 0.0 | 0.0 | 0.00 | 0.00 | 0.00 | 99 | 1013.1 |
| 20260901122225 | 67 | 118 | 0.0 | 0.0 | 0.00 | 0.00 | 0.00 | 99 | 1013.1 |
| 20260901121719 | 66 | 123 | 0.0 | 0.0 | 0.00 | 0.00 | 0.00 | 99 | 1013.1 |
| 20260901121215 | 66 | 122 | 0.0 | 0.0 | 0.00 | 0.00 | 0.00 | 99 | 1012.9 |
| 20260901120714 | 66 | 121 | 0.0 | 0.0 | 0.00 | 0.00 | 0.00 | 99 | 1013.0 |
| 20260901120209 | 66 | 121 | 0.0 | 0.0 | 0.00 | 0.00 | 0.00 | 99 | 1013.0 |
| 20260901115704 | 66 | 121 | 0.0 | 0.0 | 0.00 | 0.00 | 0.00 | 99 | 1013.1 |
| 20260901115201 | 66 | 121 | 0.0 | 0.0 | 0.00 | 0.00 | 0.00 | 99 | 1013.0 |
| 20260901114657 | 66 | 121 | 0.0 | 0.0 | 0.00 | 0.00 | 0.00 | 99 | 1012.8 |
| 20260901114156 | 66 | 122 | 0.0 | 0.0 | 0.00 | 0.00 | 0.00 | 99 | 1012.8 |
| 20260901113655 | 66 | 121 | 0.0 | 0.0 | 0.00 | 0.00 | 0.00 | 99 | 1012.7 |
| 20260901113151 | 66 | 121 | 0.0 | 0.0 | 0.00 | 0.00 | 0.00 | 99 | 1012.7 |
| 20260901112645 | 66 | 122 | 0.0 | 0.0 | 0.00 | 0.00 | 0.00 | 99 | 1012.5 |
| 20260901112145 | 66 | 120 | 0.0 | 0.0 | 0.00 | 0.00 | 0.00 | 99 | 1012.6 |
| 20260901111644 | 66 | 121 | 0.0 | 0.0 | 0.00 | 0.00 | 0.00 | 99 | 1012.6 |
| 20260901111144 | 66 | 121 | 0.0 | 0.0 | 0.00 | 0.00 | 0.00 | 99 | 1012.5 |
| 20260901110639 | 66 | 120 | 0.0 | 0.0 | 0.00 | 0.00 | 0.00 | 99 | 1012.6 |
| 20260901110134 | 66 | 120 | 0.0 | 0.0 | 0.00 | 0.00 | 0.00 | 99 | 1012.3 |
| 20260901105631 | 66 | 121 | 0.0 | 0.0 | 0.00 | 0.00 | 0.00 | 99 | 1012.5 |
| 20260901105129 | 66 | 121 | 0.0 | 0.0 | 0.00 | 0.00 | 0.00 | 99 | 1012.4 |
| 20260901104626 | 66 | 121 | 0.0 | 0.0 | 0.00 | 0.00 | 0.00 | 99 | 1012.2 |
| 20260901104121 | 66 | 121 | 0.0 | 0.0 | 0.00 | 0.00 | 0.00 | 99 | 1012.4 |
| 20260901103620 | 66 | 121 | 0.0 | 0.0 | 0.00 | 0.00 | 0.00 | 99 | 1012.3 |
| 20260901103116 | 66 | 121 | 0.0 | 0.0 | 0.00 | 0.00 | 0.00 | 99 | 1012.4 |
| 20260901102610 | 66 | 120 | 0.0 | 0.0 | 0.00 | 0.00 | 0.00 | 98 | 1012.5 |
| 20260901102105 | 66 | 121 | 0.0 | 0.0 | 0.00 | 0.00 | 0.00 | 98 | 1012.2 |
| 20260901101601 | 66 | 121 | 0.0 | 0.0 | 0.00 | 0.00 | 0.00 | 98 | 1012.3 |
| 20260901101100 | 66 | 122 | 0.0 | 0.0 | 0.00 | 0.00 | 0.00 | 98 | 1012.2 |
| 20260901100600 | 66 | 122 | 0.0 | 0.0 | 0.00 | 0.00 | 0.00 | 98 | 1012.2 |
| 20260901100054 | 66 | 122 | 0.0 | 0.0 | 0.00 | 0.00 | 0.00 | 98 | 1012.2 |
| 20260901095553 | 66 | 122 | 0.0 | 0.0 | 0.00 | 0.00 | 0.00 | 97 | 1012.1 |
| 20260901095050 | 66 | 121 | 0.0 | 0.0 | 0.00 | 0.00 | 0.00 | 97 | 1012.2 |
| 20260901094546 | 66 | 121 | 0.0 | 0.0 | 0.00 | 0.00 | 0.00 | 97 | 1012.0 |
| 20260901094045 | 67 | 121 | 0.0 | 0.0 | 0.00 | 0.00 | 0.00 | 97 | 1012.3 |
| 20260901093540 | 67 | 122 | 0.0 | 0.0 | 0.00 | 0.00 | 0.00 | 97 | 1012.2 |
| 20260901093035 | 67 | 124 | 0.0 | 0.0 | 0.00 | 0.00 | 0.00 | 97 | 1012.2 |
| 20260901092531 | 67 | 123 | 0.0 | 0.0 | 0.00 | 0.00 | 0.00 | 97 | 1012.1 |
| 20260901092026 | 67 | 122 | 0.0 | 0.0 | 0.00 | 0.00 | 0.00 | 96 | 1012.1 |
| 20260901091521 | 67 | 123 | 0.0 | 0.0 | 0.00 | 0.00 | 0.00 | 96 | 1012.1 |
| 20260901091016 | 67 | 122 | 0.0 | 0.0 | 0.00 | 0.00 | 0.00 | 96 | 1012.0 |
| 20260901090515 | 67 | 120 | 0.0 | 0.0 | 0.00 | 0.00 | 0.00 | 96 | 1012.0 |
| 20260901090011 | 67 | 120 | 0.0 | 0.0 | 0.00 | 0.00 | 0.00 | 96 | 1012.0 |
| 20260901085507 | 67 | 121 | 0.0 | 0.0 | 0.00 | 0.00 | 0.00 | 96 | 1011.9 |
| 20260901085003 | 67 | 122 | 0.0 | 0.0 | 0.00 | 0.00 | 0.00 | 96 | 1012.0 |
| 20260901084458 | 67 | 123 | 0.0 | 0.0 | 0.00 | 0.00 | 0.00 | 96 | 1012.0 |
| 20260901083954 | 67 | 122 | 0.0 | 0.0 | 0.00 | 0.00 | 0.00 | 95 | 1012.0 |
| 20260901083448 | 67 | 124 | 0.0 | 0.0 | 0.00 | 0.00 | 0.00 | 95 | 1012.2 |
| 20260901082947 | 67 | 124 | 0.0 | 0.0 | 0.00 | 0.00 | 0.00 | 95 | 1011.8 |
| 20260901082441 | 67 | 121 | 0.0 | 0.0 | 0.00 | 0.00 | 0.00 | 95 | 1012.0 |
| 20260901081937 | 67 | 122 | 0.0 | 0.0 | 0.00 | 0.00 | 0.00 | 94 | 1011.9 |
| 20260901081431 | 67 | 122 | 0.0 | 0.0 | 0.00 | 0.00 | 0.00 | 94 | 1011.9 |
| 20260901080926 | 68 | 121 | 0.0 | 0.0 | 0.00 | 0.00 | 0.00 | 94 | 1012.2 |
| 20260901080421 | 68 | 121 | 0.0 | 0.0 | 0.00 | 0.00 | 0.00 | 94 | 1011.9 |
| 20260901075921 | 68 | 121 | 0.0 | 0.0 | 0.00 | 0.00 | 0.00 | 94 | 1011.9 |
| 20260901075416 | 68 | 120 | 0.0 | 0.0 | 0.00 | 0.00 | 0.00 | 93 | 1011.9 |
| 20260901074915 | 68 | 122 | 0.0 | 0.0 | 0.00 | 0.00 | 0.00 | 93 | 1011.9 |
| 20260901074410 | 68 | 125 | 0.0 | 0.0 | 0.00 | 0.00 | 0.00 | 93 | 1011.8 |
| 20260901073906 | 68 | 124 | 0.0 | 0.0 | 0.00 | 0.00 | 0.00 | 93 | 1011.8 |
| 20260901073402 | 68 | 124 | 0.0 | 0.0 | 0.00 | 0.00 | 0.00 | 92 | 1011.8 |
| 20260901072857 | 68 | 122 | 0.0 | 0.0 | 0.00 | 0.00 | 0.00 | 92 | 1011.8 |
| 20260901072357 | 68 | 122 | 0.0 | 0.0 | 0.00 | 0.00 | 0.00 | 92 | 1011.8 |
| 20260901071852 | 68 | 121 | 0.0 | 0.0 | 0.00 | 0.00 | 0.00 | 91 | 1012.1 |
| 20260901071350 | 68 | 120 | 0.0 | 0.0 | 0.00 | 0.00 | 0.00 | 91 | 1012.0 |
| 20260901070850 | 68 | 122 | 0.0 | 0.0 | 0.00 | 0.00 | 0.00 | 91 | 1012.0 |
| 20260901070346 | 68 | 124 | 0.0 | 0.0 | 0.00 | 0.00 | 0.00 | 91 | 1011.7 |
| 20260901065844 | 68 | 124 | 0.0 | 0.0 | 0.00 | 0.00 | 0.00 | 91 | 1011.9 |
| 20260901065339 | 68 | 122 | 0.0 | 0.0 | 0.00 | 0.00 | 0.00 | 90 | 1011.8 |
| 20260901064835 | 69 | 122 | 0.0 | 0.0 | 0.00 | 0.00 | 0.00 | 90 | 1011.8 |
| 20260901064331 | 69 | 122 | 0.0 | 0.0 | 0.00 | 0.00 | 0.00 | 90 | 1011.8 |
| 20260901063829 | 69 | 122 | 0.0 | 0.0 | 0.00 | 0.00 | 0.00 | 89 | 1011.9 |
| 20260901063325 | 69 | 122 | 0.0 | 0.0 | 0.00 | 0.00 | 0.00 | 89 | 1011.9 |
| 20260901062821 | 69 | 122 | 0.0 | 0.0 | 0.00 | 0.00 | 0.00 | 89 | 1011.7 |
| 20260901062317 | 69 | 124 | 0.0 | 0.0 | 0.00 | 0.00 | 0.00 | 89 | 1011.9 |
| 20260901061812 | 69 | 124 | 0.0 | 0.0 | 0.00 | 0.00 | 0.00 | 89 | 1011.9 |
| 20260901061307 | 69 | 124 | 0.0 | 0.0 | 0.00 | 0.00 | 0.00 | 88 | 1012.1 |
| 20260901060802 | 69 | 124 | 0.0 | 0.0 | 0.00 | 0.00 | 0.00 | 88 | 1012.0 |
| 20260901060258 | 69 | 124 | 0.0 | 0.0 | 0.00 | 0.00 | 0.00 | 88 | 1012.2 |
| 20260901055752 | 70 | 125 | 0.0 | 0.0 | 0.00 | 0.00 | 0.00 | 87 | 1011.9 |
| 20260901055249 | 70 | 124 | 0.0 | 0.0 | 0.00 | 0.00 | 0.00 | 87 | 1011.9 |
| 20260901054746 | 70 | 127 | 0.0 | 0.0 | 0.00 | 0.00 | 0.00 | 87 | 1012.1 |
| 20260901054242 | 70 | 125 | 0.0 | 0.0 | 0.00 | 0.00 | 0.00 | 87 | 1011.9 |
| 20260901053738 | 70 | 122 | 0.0 | 0.0 | 0.00 | 0.00 | 0.00 | 87 | 1011.8 |
| 20260901053233 | 70 | 123 | 0.0 | 0.0 | 0.00 | 0.00 | 0.00 | 86 | 1011.8 |
| 20260901052728 | 70 | 125 | 0.0 | 0.0 | 0.00 | 0.00 | 0.00 | 86 | 1011.8 |
| 20260901052224 | 70 | 124 | 0.0 | 0.0 | 0.00 | 0.00 | 0.00 | 86 | 1011.5 |
| 20260901051722 | 70 | 124 | 0.0 | 0.0 | 0.00 | 0.00 | 0.00 | 85 | 1011.7 |
| 20260901051216 | 71 | 124 | 0.0 | 0.0 | 0.00 | 0.00 | 0.00 | 85 | 1011.7 |
| 20260901050712 | 71 | 124 | 0.0 | 0.0 | 0.00 | 0.00 | 0.00 | 85 | 1011.8 |
| 20260901050207 | 71 | 124 | 0.0 | 0.0 | 0.00 | 0.00 | 0.00 | 85 | 1011.7 |
| 20260901045702 | 71 | 122 | 0.0 | 0.0 | 0.00 | 0.00 | 0.00 | 84 | 1011.7 |
| 20260901045157 | 71 | 122 | 0.0 | 0.0 | 0.00 | 0.00 | 0.00 | 83 | 1011.8 |
| 20260901044652 | 71 | 122 | 0.0 | 0.0 | 0.00 | 0.00 | 0.00 | 83 | 1011.4 |
| 20260901044149 | 71 | 122 | 0.0 | 0.0 | 0.00 | 0.00 | 0.00 | 83 | 1011.9 |
| 20260901043644 | 72 | 123 | 0.0 | 0.0 | 0.00 | 0.00 | 0.00 | 82 | 1011.7 |
| 20260901043140 | 72 | 124 | 0.0 | 0.0 | 0.00 | 0.00 | 0.00 | 82 | 1011.5 |
| 20260901042638 | 72 | 125 | 0.0 | 0.0 | 0.00 | 0.00 | 0.00 | 82 | 1011.8 |
| 20260901042134 | 72 | 130 | 0.0 | 0.0 | 0.00 | 0.00 | 0.00 | 82 | 1011.7 |
| 20260901041630 | 72 | 127 | 0.0 | 0.0 | 0.00 | 0.00 | 0.00 | 82 | 1011.7 |
| 20260901041125 | 72 | 125 | 0.0 | 0.0 | 0.00 | 0.00 | 0.00 | 81 | 1011.9 |
| 20260901040624 | 72 | 129 | 0.0 | 0.0 | 0.00 | 0.00 | 0.00 | 82 | 1011.5 |
| 20260901040123 | 72 | 126 | 0.0 | 0.0 | 0.00 | 0.00 | 0.00 | 81 | 1011.5 |
| 20260901035621 | 73 | 126 | 0.0 | 0.0 | 0.00 | 0.00 | 0.00 | 80 | 1011.4 |
| 20260901035120 | 73 | 119 | 0.0 | 0.0 | 0.00 | 0.00 | 0.00 | 80 | 1011.5 |
| 20260901034615 | 73 | 124 | 0.0 | 0.0 | 0.00 | 0.00 | 0.00 | 80 | 1011.2 |
| 20260901034109 | 73 | 124 | 0.0 | 0.0 | 0.00 | 0.00 | 0.00 | 80 | 1011.4 |
| 20260901033608 | 73 | 126 | 0.0 | 0.0 | 0.00 | 0.00 | 0.00 | 79 | 1011.5 |
| 20260901033103 | 73 | 127 | 0.0 | 0.0 | 0.00 | 0.00 | 0.00 | 79 | 1011.4 |
| 20260901032601 | 73 | 126 | 0.0 | 0.0 | 0.00 | 0.00 | 0.00 | 78 | 1011.5 |
| 20260901032057 | 73 | 125 | 0.0 | 0.0 | 0.00 | 0.00 | 0.00 | 78 | 1011.2 |
| 20260901031552 | 73 | 124 | 0.0 | 0.0 | 0.00 | 0.00 | 0.00 | 77 | 1011.2 |
| 20260901031048 | 74 | 124 | 0.0 | 0.0 | 0.00 | 0.00 | 0.00 | 76 | 1011.3 |
| 20260901030547 | 74 | 124 | 0.0 | 0.0 | 0.00 | 0.00 | 0.00 | 76 | 1011.2 |
| 20260901030042 | 74 | 123 | 0.0 | 0.0 | 0.00 | 0.00 | 0.00 | 75 | 1011.5 |
| 20260901025537 | 75 | 124 | 0.0 | 0.0 | 0.00 | 0.00 | 0.00 | 74 | 1011.3 |
| 20260901025036 | 75 | 124 | 0.0 | 0.0 | 0.00 | 0.00 | 0.00 | 74 | 1011.3 |
| 20260901024532 | 75 | 124 | 0.0 | 0.0 | 0.00 | 0.00 | 0.00 | 73 | 1011.2 |
| 20260901024030 | 75 | 125 | 0.0 | 0.0 | 0.00 | 0.00 | 0.00 | 73 | 1011.3 |
| 20260901023524 | 76 | 125 | 0.0 | 0.0 | 0.00 | 0.00 | 0.00 | 73 | 1011.1 |
| 20260901023020 | 76 | 125 | 0.0 | 0.0 | 0.00 | 0.00 | 0.00 | 72 | 1011.0 |
| 20260901022515 | 76 | 124 | 0.0 | 0.0 | 0.00 | 0.00 | 0.00 | 72 | 1011.0 |
| 20260901022010 | 76 | 124 | 0.0 | 0.0 | 0.00 | 0.00 | 0.00 | 71 | 1010.9 |
| 20260901021505 | 77 | 124 | 0.0 | 0.0 | 0.00 | 0.00 | 0.00 | 70 | 1010.9 |
| 20260901021000 | 77 | 124 | 0.0 | 0.0 | 0.00 | 0.00 | 0.00 | 70 | 1010.8 |
| 20260901020455 | 77 | 126 | 0.0 | 0.0 | 0.00 | 0.00 | 0.00 | 70 | 1010.8 |
| 20260901015954 | 77 | 127 | 0.0 | 0.0 | 0.00 | 0.00 | 0.00 | 69 | 1010.8 |
| 20260901015451 | 78 | 126 | 0.0 | 0.0 | 0.00 | 0.00 | 0.00 | 69 | 1010.6 |
| 20260901014950 | 78 | 127 | 0.0 | 0.0 | 0.00 | 0.00 | 0.00 | 68 | 1010.6 |
| 20260901014447 | 78 | 127 | 0.0 | 0.0 | 0.00 | 0.00 | 0.00 | 68 | 1010.5 |
| 20260901013943 | 78 | 129 | 0.0 | 0.0 | 0.00 | 0.00 | 0.00 | 68 | 1010.5 |
| 20260901013438 | 79 | 127 | 0.0 | 0.0 | 0.00 | 0.00 | 0.00 | 67 | 1010.4 |
| 20260901012934 | 79 | 128 | 0.0 | 0.0 | 0.00 | 0.00 | 0.00 | 66 | 1010.6 |
| 20260901012433 | 79 | 127 | 0.0 | 0.0 | 0.00 | 0.00 | 0.00 | 65 | 1010.3 |
| 20260901011929 | 80 | 129 | 0.0 | 0.0 | 0.00 | 0.00 | 0.00 | 65 | 1010.4 |
| 20260901011425 | 80 | 127 | 0.0 | 0.0 | 0.00 | 0.00 | 0.00 | 64 | 1010.0 |
| 20260901010923 | 81 | 129 | 0.0 | 0.0 | 0.00 | 0.00 | 0.00 | 63 | 1010.3 |
| 20260901010418 | 81 | 126 | 0.0 | 0.0 | 0.00 | 0.00 | 0.00 | 62 | 1010.3 |
| 20260901005917 | 82 | 129 | 0.0 | 0.0 | 0.00 | 0.00 | 0.00 | 62 | 1010.3 |
| 20260901005412 | 82 | 127 | 0.0 | 0.0 | 0.00 | 0.00 | 0.00 | 61 | 1010.2 |
| 20260901004908 | 83 | 129 | 0.0 | 0.0 | 0.00 | 0.00 | 0.00 | 60 | 1010.1 |
| 20260901004407 | 84 | 133 | 0.0 | 0.0 | 0.00 | 0.00 | 0.00 | 59 | 1010.0 |
| 20260901003902 | 84 | 131 | 0.0 | 0.0 | 0.00 | 0.00 | 0.00 | 58 | 1010.1 |
| 20260901003357 | 85 | 129 | 0.0 | 0.0 | 0.00 | 0.00 | 0.00 | 57 | 1010.0 |
| 20260901002855 | 86 | 130 | 0.0 | 0.0 | 0.00 | 0.00 | 0.00 | 56 | 1010.0 |
| 20260901002354 | 86 | 137 | 1.0 | 1.0 | 0.00 | 0.00 | 0.00 | 55 | 1009.7 |
| 20260901001849 | 87 | 137 | 1.0 | 1.0 | 0.00 | 0.00 | 0.00 | 54 | 1010.0 |
| 20260901001345 | 88 | 139 | 1.0 | 1.0 | 0.00 | 0.00 | 0.00 | 52 | 1009.9 |
| 20260901000840 | 89 | 128 | 0.0 | 0.0 | 0.00 | 0.00 | 0.00 | 51 | 1009.8 |
| 20260901000330 | 90 | 138 | 1.0 | 1.0 | 0.00 | 0.00 | 0.00 | 49 | 1009.7 |
| 20260831235828 | 91 | 130 | 0.0 | 0.0 | 0.00 | 0.00 | 0.00 | 46 | 1009.7 |
| 20260831235324 | 93 | 141 | 1.0 | 2.0 | 0.00 | 0.00 | 0.00 | 45 | 1009.7 |
| 20260831234824 | 94 | 144 | 1.0 | 1.0 | 0.00 | 0.00 | 0.00 | 43 | 1009.9 |
| 20260831234319 | 95 | 114 | 0.0 | 0.0 | 0.00 | 0.00 | 0.00 | 40 | 1009.7 |
| 20260831233815 | 96 | 83 | 1.0 | 2.0 | 0.00 | 0.00 | 0.00 | 39 | 1009.9 |
| 20260831233310 | 97 | 129 | 0.0 | 1.0 | 0.00 | 0.00 | 0.00 | 38 | 1009.9 |
| 20260831232805 | 97 | 126 | 0.0 | 1.0 | 0.00 | 0.00 | 0.00 | 38 | 1009.9 |
| 20260831232305 | 98 | 310 | 2.0 | 2.0 | 0.00 | 0.00 | 0.00 | 37 | 1009.9 |
| 20260831231757 | 99 | 89 | 1.0 | 1.0 | 0.00 | 0.00 | 0.00 | 37 | 1009.9 |
| 20260831231253 | 100 | 144 | 1.0 | 2.0 | 0.00 | 0.00 | 0.00 | 37 | 1010.1 |
| 20260831230748 | 100 | 122 | 1.0 | 1.0 | 0.00 | 0.00 | 0.00 | 36 | 1009.8 |
| 20260831230243 | 100 | 136 | 0.0 | 1.0 | 0.00 | 0.00 | 0.00 | 37 | 1009.8 |
| 20260831225742 | 100 | 108 | 1.0 | 1.0 | 0.00 | 0.00 | 0.00 | 36 | 1009.9 |
| 20260831225238 | 100 | 118 | 1.0 | 1.0 | 0.00 | 0.00 | 0.00 | 36 | 1009.7 |
| 20260831224732 | 101 | 134 | 1.0 | 1.0 | 0.00 | 0.00 | 0.00 | 36 | 1009.7 |
| 20260831224228 | 101 | 130 | 1.0 | 1.0 | 0.00 | 0.00 | 0.00 | 36 | 1010.1 |
| 20260831223723 | 102 | 266 | 3.0 | 5.0 | 0.00 | 0.00 | 0.00 | 36 | 1009.8 |
| 20260831223220 | 101 | 168 | 2.0 | 3.0 | 0.00 | 0.00 | 0.00 | 35 | 1009.7 |
| 20260831222715 | 101 | 136 | 1.0 | 1.0 | 0.00 | 0.00 | 0.00 | 35 | 1009.9 |
| 20260831222211 | 99 | 140 | 1.0 | 1.0 | 0.00 | 0.00 | 0.00 | 37 | 1009.8 |
| 20260831221706 | 101 | 92 | 2.0 | 2.0 | 0.00 | 0.00 | 0.00 | 36 | 1010.2 |
| 20260831221201 | 101 | 139 | 1.0 | 1.0 | 0.00 | 0.00 | 0.00 | 36 | 1009.9 |
| 20260831220656 | 102 | 128 | 0.0 | 0.0 | 0.00 | 0.00 | 0.00 | 35 | 1010.2 |
| 20260831220151 | 101 | 163 | 1.0 | 2.0 | 0.00 | 0.00 | 0.00 | 34 | 1010.0 |
| 20260831215641 | 102 | 121 | 2.0 | 2.0 | 0.00 | 0.00 | 0.00 | 34 | 1010.2 |
| 20260831215136 | 102 | 18 | 2.0 | 2.0 | 0.00 | 0.00 | 0.00 | 35 | 1009.9 |
| 20260831214633 | 101 | 135 | 2.0 | 2.0 | 0.00 | 0.00 | 0.00 | 35 | 1009.9 |
| 20260831214130 | 100 | 170 | 2.0 | 2.0 | 0.00 | 0.00 | 0.00 | 34 | 1010.0 |
| 20260831213626 | 100 | 147 | 4.0 | 5.0 | 0.00 | 0.00 | 0.00 | 35 | 1010.0 |
| 20260831213120 | 99 | 160 | 1.0 | 1.0 | 0.00 | 0.00 | 0.00 | 36 | 1009.9 |
| 20260831212616 | 98 | 121 | 1.0 | 1.0 | 0.00 | 0.00 | 0.00 | 37 | 1010.0 |
| 20260831212112 | 97 | 182 | 2.0 | 2.0 | 0.00 | 0.00 | 0.00 | 38 | 1010.2 |
| 20260831211606 | 99 | 322 | 3.0 | 6.0 | 0.00 | 0.00 | 0.00 | 36 | 1010.2 |
| 20260831211105 | 102 | 96 | 2.0 | 2.0 | 0.00 | 0.00 | 0.00 | 35 | 1010.1 |
| 20260831210600 | 101 | 178 | 3.0 | 3.0 | 0.00 | 0.00 | 0.00 | 35 | 1010.4 |
| 20260831210057 | 101 | 169 | 2.0 | 2.0 | 0.00 | 0.00 | 0.00 | 35 | 1010.2 |
| 20260831205556 | 101 | 144 | 2.0 | 2.0 | 0.00 | 0.00 | 0.00 | 35 | 1010.4 |
| 20260831205052 | 100 | 136 | 0.0 | 1.0 | 0.00 | 0.00 | 0.00 | 36 | 1010.4 |
| 20260831204547 | 102 | 194 | 3.0 | 3.0 | 0.00 | 0.00 | 0.00 | 33 | 1010.5 |
| 20260831204046 | 101 | 143 | 1.0 | 1.0 | 0.00 | 0.00 | 0.00 | 34 | 1010.2 |
| 20260831203541 | 101 | 132 | 1.0 | 2.0 | 0.00 | 0.00 | 0.00 | 34 | 1010.5 |
| 20260831203040 | 102 | 137 | 0.0 | 1.0 | 0.00 | 0.00 | 0.00 | 35 | 1010.5 |
| 20260831202539 | 103 | 182 | 3.0 | 3.0 | 0.00 | 0.00 | 0.00 | 33 | 1010.6 |
| 20260831202038 | 104 | 179 | 1.0 | 2.0 | 0.00 | 0.00 | 0.00 | 32 | 1010.7 |
| 20260831201537 | 104 | 119 | 0.0 | 0.0 | 0.00 | 0.00 | 0.00 | 33 | 1010.7 |
| 20260831201033 | 103 | 75 | 2.0 | 2.0 | 0.00 | 0.00 | 0.00 | 35 | 1010.8 |
| 20260831200523 | 104 | 345 | 2.0 | 2.0 | 0.00 | 0.00 | 0.00 | 33 | 1010.8 |
| 20260831200018 | 101 | 129 | 0.0 | 0.0 | 0.00 | 0.00 | 0.00 | 36 | 1010.7 |
| 20260831195513 | 100 | 111 | 3.0 | 3.0 | 0.00 | 0.00 | 0.00 | 36 | 1010.8 |
| 20260831195013 | 99 | 136 | 1.0 | 2.0 | 0.00 | 0.00 | 0.00 | 37 | 1011.0 |
| 20260831194508 | 98 | 138 | 1.0 | 1.0 | 0.00 | 0.00 | 0.00 | 37 | 1011.0 |
| 20260831194003 | 100 | 136 | 1.0 | 1.0 | 0.00 | 0.00 | 0.00 | 36 | 1011.0 |
| 20260831193458 | 100 | 145 | 1.0 | 1.0 | 0.00 | 0.00 | 0.00 | 36 | 1010.9 |